GW2167 Weather Reports


Display with metric or nautical units.
time (UTC)temp
F
wind
direction
speed
MPH
gust
MPH
rain 1hr
in
rain 24hr
in
rain mn
in
humidity
%
barometer
mb
20260505011416 49 351 1.0 3.0 0.00 0.00 0.00 94 1005.6
20260505011403 49 349 1.0 3.0 0.00 0.00 0.00 94 1005.7
20260505011303 49 344 1.0 3.0 0.00 0.00 0.00 95 1005.5
20260505011103 49 338 2.0 4.0 0.00 0.00 0.00 95 1005.6
20260505011003 49 338 2.0 4.0 0.00 0.00 0.00 95 1005.6
20260505010903 49 334 2.0 4.0 0.00 0.00 0.00 95 1005.6
20260505010803 49 330 2.0 4.0 0.00 0.00 0.00 94 1005.7
20260505010617 49 322 2.0 4.0 0.00 0.00 0.00 94 1005.8
20260505010603 49 321 2.0 4.0 0.00 0.00 0.00 94 1005.6
20260505010503 49 320 2.0 4.0 0.00 0.00 0.00 94 1005.7
20260505010317 49 323 2.0 4.0 0.00 0.00 0.00 94 1005.6
20260505010303 49 323 2.0 4.0 0.00 0.00 0.00 94 1005.5
20260505010203 49 324 2.0 4.0 0.00 0.00 0.00 94 1005.5
20260505010003 49 319 2.0 4.0 0.00 0.00 0.00 94 1005.7
20260505005903 49 319 2.0 4.0 0.00 0.00 0.00 94 1005.5
20260505005818 49 320 2.0 4.0 0.00 0.00 0.00 93 1005.5
20260505005803 49 321 2.0 4.0 0.00 0.00 0.00 93 1005.6
20260505005703 49 323 2.0 4.0 0.00 0.00 0.00 93 1005.7
20260505005619 49 324 2.0 4.0 0.00 0.00 0.00 93 1005.7
20260505005503 49 324 3.0 4.0 0.00 0.00 0.00 93 1005.5
20260505005416 49 323 3.0 4.0 0.00 0.00 0.00 93 1005.5
20260505005304 49 322 3.0 4.0 0.00 0.00 0.00 93 1005.5
20260505005103 49 323 2.0 4.0 0.00 0.00 0.00 92 1005.5
20260505005004 49 326 2.0 4.0 0.00 0.00 0.00 92 1005.5
20260505004903 49 332 2.0 4.0 0.00 0.00 0.00 92 1005.5
20260505004803 50 339 2.0 4.0 0.00 0.00 0.00 92 1005.5
20260505004718 50 344 2.0 4.0 0.00 0.00 0.00 92 1005.5
20260505004703 50 346 2.0 4.0 0.00 0.00 0.00 93 1005.5
20260505004603 50 348 1.0 4.0 0.00 0.00 0.00 93 1005.6
20260505004403 50 9 1.0 2.0 0.00 0.00 0.00 93 1005.4
20260505004303 50 21 1.0 3.0 0.00 0.00 0.00 92 1005.4
20260505004203 50 27 1.0 4.0 0.00 0.00 0.00 92 1005.5
20260505004103 50 33 1.0 4.0 0.00 0.00 0.00 92 1005.4
20260505004003 50 37 1.0 4.0 0.00 0.00 0.00 92 1005.1
20260505003903 50 39 1.0 4.0 0.00 0.00 0.00 92 1005.3
20260505003803 50 41 1.0 4.0 0.00 0.00 0.00 92 1005.4
20260505003703 50 42 2.0 4.0 0.00 0.00 0.00 92 1005.5
20260505003603 50 45 2.0 4.0 0.00 0.00 0.00 92 1005.4
20260505003503 50 46 2.0 4.0 0.00 0.00 0.00 91 1005.5
20260505003403 50 46 2.0 4.0 0.00 0.00 0.00 91 1005.5
20260505003303 50 45 2.0 4.0 0.00 0.00 0.00 91 1005.4
20260505003103 51 51 2.0 4.0 0.00 0.00 0.00 91 1005.5
20260505003003 51 53 2.0 4.0 0.00 0.00 0.00 91 1005.6
20260505002903 51 57 2.0 4.0 0.00 0.00 0.00 91 1005.5
20260505002819 51 59 2.0 3.0 0.00 0.00 0.00 91 1005.5
20260505002803 51 60 2.0 3.0 0.00 0.00 0.00 91 1005.5
20260505002703 51 60 2.0 3.0 0.00 0.00 0.00 91 1005.5
20260505002403 51 61 2.0 3.0 0.00 0.00 0.00 90 1005.5
20260505002304 51 62 2.0 3.0 0.00 0.00 0.00 90 1005.5
20260505002203 51 61 2.0 3.0 0.00 0.00 0.00 90 1005.6
20260505002103 51 59 2.0 3.0 0.00 0.00 0.00 90 1005.6
20260505002003 51 55 2.0 3.0 0.00 0.00 0.00 89 1005.5
20260505001903 51 52 2.0 3.0 0.00 0.00 0.00 89 1005.5
20260505001803 51 47 2.0 3.0 0.00 0.00 0.00 89 1005.6
20260505001703 52 45 2.0 3.0 0.00 0.00 0.00 89 1005.5
20260505001603 52 42 2.0 3.0 0.00 0.00 0.00 89 1005.7
20260505001503 52 41 2.0 3.0 0.00 0.00 0.00 88 1005.5
20260505001403 52 37 1.0 3.0 0.00 0.00 0.00 88 1005.6
20260505001303 52 34 1.0 3.0 0.00 0.00 0.00 89 1005.5
20260505001203 52 32 1.0 2.0 0.00 0.00 0.00 89 1005.5
20260505001120 52 25 1.0 2.0 0.00 0.00 0.00 89 1005.5
20260505001103 52 23 1.0 2.0 0.00 0.00 0.00 89 1005.5
20260505001003 52 11 1.0 3.0 0.00 0.00 0.00 89 1005.7
20260505000803 52 343 1.0 4.0 0.00 0.00 0.00 88 1005.8
20260505000703 52 335 1.0 4.0 0.00 0.00 0.00 88 1005.7
20260505000603 52 328 1.0 4.0 0.00 0.00 0.00 87 1005.8
20260505000503 53 323 1.0 4.0 0.00 0.00 0.00 88 1005.6
20260505000420 53 320 1.0 4.0 0.00 0.00 0.00 88 1005.6
20260505000405 53 320 1.0 4.0 0.00 0.00 0.00 88 1005.7
20260505000303 53 319 1.0 4.0 0.00 0.00 0.00 87 1005.6
20260505000103 53 328 2.0 4.0 0.00 0.00 0.00 87 1005.4
20260505000004 53 337 2.0 4.0 0.00 0.00 0.00 87 1005.6
20260504235903 53 341 2.0 4.0 0.00 0.00 0.81 86 1005.7
20260504235803 53 349 2.0 4.0 0.00 0.00 0.81 86 1005.7
20260504235703 53 2 2.0 4.0 0.00 0.00 0.81 86 1005.5
20260504235603 53 13 2.0 4.0 0.00 0.00 0.81 86 1005.6
20260504235503 53 23 2.0 4.0 0.00 0.00 0.81 85 1005.5
20260504235403 53 33 2.0 4.0 0.00 0.00 0.81 84 1005.6
20260504235304 53 39 2.0 4.0 0.00 0.00 0.81 85 1005.5
20260504235203 53 46 2.0 4.0 0.00 0.00 0.81 84 1005.5
20260504235103 53 49 2.0 4.0 0.00 0.00 0.81 85 1005.5
20260504235003 53 53 2.0 4.0 0.00 0.00 0.81 84 1005.7
20260504234903 54 58 2.0 4.0 0.00 0.00 0.81 84 1005.7
20260504234803 54 61 2.0 4.0 0.00 0.00 0.81 84 1005.5
20260504234703 54 59 2.0 4.0 0.00 0.00 0.81 82 1005.8
20260504234603 54 60 2.0 4.0 0.00 0.00 0.81 83 1005.6
20260504234503 54 55 2.0 4.0 0.00 0.00 0.81 84 1005.6
20260504234403 54 51 2.0 3.0 0.00 0.00 0.81 84 1005.7
20260504234303 54 51 2.0 3.0 0.00 0.00 0.81 83 1005.5
20260504234203 54 51 2.0 3.0 0.00 0.00 0.81 83 1005.8
20260504234103 55 50 2.0 3.0 0.00 0.00 0.81 83 1005.7
20260504234003 55 48 2.0 3.0 0.00 0.00 0.81 83 1005.7
20260504233903 55 43 2.0 3.0 0.00 0.00 0.81 81 1005.7
20260504233803 55 37 1.0 3.0 0.00 0.00 0.81 81 1005.6
20260504233703 55 35 2.0 4.0 0.00 0.00 0.81 81 1005.7
20260504233603 55 32 2.0 4.0 0.00 0.00 0.81 81 1005.8
20260504233503 55 35 2.0 4.0 0.00 0.00 0.81 82 1005.8
20260504233403 55 35 2.0 4.0 0.00 0.00 0.81 82 1005.8
20260504233303 55 32 2.0 4.0 0.00 0.00 0.81 81 1005.6
20260504233103 56 22 2.0 4.0 0.00 0.00 0.81 80 1005.7
20260504233003 56 19 2.0 4.0 0.00 0.00 0.81 79 1005.8
20260504232903 56 18 2.0 4.0 0.00 0.00 0.81 80 1005.9
20260504232803 56 20 2.0 4.0 0.00 0.00 0.81 79 1005.9
20260504232718 56 23 2.0 4.0 0.00 0.00 0.81 79 1005.9
20260504232703 56 23 2.0 4.0 0.00 0.00 0.81 79 1005.8
20260504232616 56 24 2.0 5.0 0.00 0.00 0.81 79 1005.8
20260504232603 56 25 2.0 5.0 0.00 0.00 0.81 79 1006.0
20260504232304 56 21 2.0 5.0 0.00 0.00 0.81 78 1005.7
20260504232203 57 24 2.0 5.0 0.00 0.00 0.81 78 1005.9
20260504232103 57 24 2.0 5.0 0.00 0.00 0.81 79 1005.9
20260504232003 56 27 2.0 5.0 0.00 0.00 0.81 79 1005.9
20260504231803 57 24 2.0 5.0 0.00 0.00 0.81 78 1005.9
20260504231703 57 18 2.0 5.0 0.00 0.00 0.81 78 1005.9
20260504231603 57 13 2.0 5.0 0.00 0.00 0.81 78 1005.8
20260504231503 57 11 2.0 5.0 0.00 0.00 0.81 78 1006.0
20260504231403 57 9 2.0 5.0 0.00 0.00 0.81 78 1005.8
20260504231303 57 7 2.0 5.0 0.00 0.00 0.81 78 1005.9
20260504231203 57 1 3.0 5.0 0.00 0.00 0.81 77 1005.8
20260504231103 57 359 3.0 5.0 0.00 0.00 0.81 78 1005.9
20260504231003 57 356 3.0 5.0 0.00 0.00 0.81 78 1006.1
20260504230903 57 352 3.0 5.0 0.00 0.00 0.81 78 1006.0
20260504230803 57 351 3.0 5.0 0.00 0.00 0.81 77 1006.0
20260504230703 57 351 3.0 5.0 0.00 0.00 0.81 77 1005.8
20260504230603 57 354 3.0 5.0 0.00 0.00 0.81 77 1005.9
20260504230503 57 355 3.0 5.0 0.00 0.00 0.81 77 1006.2
20260504230403 58 354 3.0 6.0 0.00 0.00 0.81 77 1006.1
20260504230303 58 353 3.0 6.0 0.00 0.00 0.81 77 1006.2
20260504230203 58 353 3.0 6.0 0.00 0.00 0.81 77 1006.0
20260504230003 58 354 3.0 6.0 0.00 0.00 0.81 76 1006.0
20260504225903 58 359 3.0 6.0 0.00 0.00 0.81 76 1005.9
20260504225804 58 1 3.0 6.0 0.00 0.00 0.81 76 1006.1
20260504225703 58 1 3.0 7.0 0.00 0.00 0.81 77 1006.0
20260504225603 58 1 3.0 10.0 0.00 0.00 0.81 76 1006.0
20260504225503 58 360 4.0 10.0 0.00 0.00 0.81 76 1005.9
20260504225304 58 1 4.0 10.0 0.00 0.00 0.81 76 1006.1
20260504225216 58 3 4.0 10.0 0.00 0.00 0.81 76 1006.1
20260504225203 58 4 3.0 10.0 0.00 0.00 0.81 77 1006.0
20260504225103 58 5 3.0 10.0 0.00 0.00 0.81 77 1005.9
20260504224903 58 4 3.0 10.0 0.00 0.00 0.81 77 1006.0
20260504224803 58 3 3.0 10.0 0.00 0.00 0.81 77 1005.9
20260504224717 58 2 3.0 10.0 0.00 0.00 0.81 77 1005.9
20260504224703 58 3 3.0 10.0 0.00 0.00 0.81 77 1006.1
20260504224603 58 3 3.0 10.0 0.00 0.00 0.81 77 1006.0
20260504224403 58 360 2.0 6.0 0.00 0.00 0.81 77 1006.2
20260504224303 58 358 3.0 6.0 0.00 0.00 0.81 77 1006.1
20260504224203 58 356 3.0 6.0 0.00 0.00 0.81 77 1006.2
20260504224103 58 354 3.0 6.0 0.00 0.00 0.81 77 1006.0
20260504224003 58 355 3.0 6.0 0.00 0.00 0.81 77 1006.1
20260504223903 58 351 3.0 6.0 0.00 0.00 0.81 77 1005.9
20260504223803 58 350 3.0 6.0 0.00 0.00 0.81 76 1006.2
20260504223719 58 352 3.0 6.0 0.00 0.00 0.81 76 1006.2
20260504223703 59 352 3.0 6.0 0.00 0.00 0.81 76 1006.1
20260504223603 59 350 3.0 6.0 0.00 0.00 0.81 76 1005.8
20260504223403 59 344 3.0 6.0 0.00 0.00 0.81 76 1006.1
20260504223303 59 344 3.0 6.0 0.00 0.00 0.81 76 1006.1
20260504223203 59 344 3.0 6.0 0.00 0.00 0.81 76 1006.1
20260504223103 59 340 3.0 6.0 0.00 0.00 0.81 76 1005.9
20260504223003 59 340 3.0 6.0 0.00 0.00 0.81 75 1005.9
20260504222903 59 343 3.0 6.0 0.00 0.00 0.81 75 1006.4
20260504222803 59 342 3.0 8.0 0.00 0.00 0.81 75 1005.9
20260504222717 59 339 3.0 11.0 0.00 0.00 0.81 75 1005.9
20260504222703 59 339 3.0 11.0 0.00 0.00 0.81 75 1006.0
20260504222603 59 343 3.0 11.0 0.00 0.00 0.81 75 1006.1
20260504222403 59 348 4.0 11.0 0.00 0.00 0.81 75 1005.9
20260504222304 59 349 4.0 11.0 0.00 0.00 0.81 74 1006.0
20260504222203 59 349 4.0 11.0 0.00 0.00 0.81 75 1005.9
20260504222103 59 351 4.0 11.0 0.00 0.00 0.81 74 1005.8
20260504222003 59 349 5.0 11.0 0.00 0.00 0.81 74 1005.8
20260504221903 59 349 5.0 11.0 0.00 0.00 0.81 74 1005.9
20260504221803 59 347 5.0 11.0 0.00 0.00 0.81 74 1005.9
20260504221719 59 347 5.0 11.0 0.00 0.00 0.81 74 1005.9
20260504221703 59 347 5.0 11.0 0.00 0.00 0.81 74 1005.6
20260504221603 59 345 5.0 11.0 0.00 0.00 0.81 74 1005.8
20260504221403 59 342 5.0 10.0 0.00 0.00 0.81 74 1005.9
20260504221303 60 340 5.0 10.0 0.00 0.00 0.81 73 1005.9
20260504221216 60 341 5.0 10.0 0.00 0.00 0.81 73 1005.9
20260504221203 60 340 5.0 10.0 0.00 0.00 0.81 73 1005.9
20260504221103 60 340 5.0 10.0 0.00 0.00 0.81 73 1005.9
20260504220914 60 338 5.0 11.0 0.00 0.00 0.81 72 1006.0
20260504220803 60 340 5.0 11.0 0.00 0.00 0.81 72 1005.9
20260504220703 60 341 6.0 11.0 0.00 0.00 0.81 72 1005.9
20260504220603 60 343 6.0 11.0 0.00 0.00 0.81 72 1005.7
20260504220503 60 344 6.0 11.0 0.00 0.00 0.81 72 1005.9
20260504220403 60 344 6.0 11.0 0.00 0.00 0.81 72 1005.9
20260504220303 60 345 5.0 11.0 0.00 0.00 0.81 72 1005.8
20260504220203 60 346 5.0 11.0 0.00 0.00 0.81 72 1005.9
20260504220003 60 349 5.0 11.0 0.00 0.00 0.81 70 1005.9
20260504215903 60 349 5.0 11.0 0.00 0.00 0.81 69 1005.8
20260504215803 60 350 5.0 11.0 0.00 0.00 0.81 69 1005.9
20260504215703 60 351 5.0 11.0 0.00 0.00 0.81 68 1006.0
20260504215603 60 351 4.0 10.0 0.00 0.00 0.81 67 1005.8
20260504215503 60 350 4.0 10.0 0.00 0.00 0.81 67 1005.9
20260504215419 60 349 4.0 10.0 0.00 0.00 0.81 67 1005.9
20260504215403 60 348 4.0 10.0 0.00 0.00 0.81 67 1005.9
20260504215304 60 347 5.0 10.0 0.00 0.00 0.81 67 1006.0
20260504215103 60 346 5.0 10.0 0.00 0.00 0.81 66 1005.8
20260504215003 60 345 5.0 11.0 0.00 0.00 0.81 66 1005.7
20260504214903 60 345 5.0 11.0 0.00 0.00 0.81 66 1005.9
20260504214803 60 346 5.0 12.0 0.00 0.00 0.81 66 1005.8
20260504214703 60 344 6.0 12.0 0.00 0.00 0.81 66 1005.6
20260504214603 60 343 6.0 12.0 0.00 0.00 0.81 66 1005.8
20260504214503 60 342 6.0 16.0 0.00 0.00 0.81 66 1005.8
20260504214403 60 342 6.0 16.0 0.00 0.00 0.81 65 1005.8
20260504214303 60 341 6.0 16.0 0.00 0.00 0.81 66 1005.8
20260504214203 60 339 6.0 16.0 0.00 0.00 0.81 65 1005.8
20260504214103 60 338 7.0 16.0 0.00 0.00 0.81 65 1005.7
20260504214003 60 338 7.0 16.0 0.00 0.00 0.81 65 1005.6
20260504213903 59 335 7.0 16.0 0.00 0.00 0.81 65 1005.8
20260504213803 59 332 6.0 16.0 0.00 0.00 0.81 65 1005.8
20260504213703 59 330 7.0 16.0 0.00 0.00 0.81 65 1005.7
20260504213603 59 327 6.0 16.0 0.00 0.00 0.81 65 1005.5
20260504213516 58 327 6.0 16.0 0.00 0.00 0.81 65 1005.5
20260504213503 58 326 6.0 16.0 0.00 0.00 0.81 65 1005.6
20260504213403 58 324 6.0 16.0 0.00 0.00 0.81 66 1005.7
20260504213203 58 320 6.0 10.0 0.00 0.00 0.81 66 1005.6
20260504213119 58 318 6.0 10.0 0.00 0.00 0.81 66 1005.6
20260504213103 58 318 6.0 10.0 0.00 0.00 0.81 66 1005.5
20260504213003 58 316 6.0 10.0 0.00 0.00 0.81 66 1005.5
20260504212916 57 314 5.0 10.0 0.00 0.00 0.81 67 1005.5
20260504212818 57 313 5.0 10.0 0.00 0.00 0.81 67 1005.7
20260504212503 56 315 5.0 9.0 0.00 0.00 0.81 69 1005.6
20260504212417 55 314 5.0 9.0 0.00 0.00 0.81 69 1005.6
20260504212403 55 313 4.0 9.0 0.00 0.00 0.81 69 1005.5
20260504212304 55 311 4.0 9.0 0.00 0.00 0.81 71 1005.7
20260504212103 55 300 4.0 14.0 0.00 0.00 0.81 71 1005.5
20260504212003 54 300 4.0 15.0 0.00 0.00 0.81 73 1005.5
20260504211903 54 301 4.0 15.0 0.00 0.00 0.81 73 1005.5
20260504211803 54 299 5.0 15.0 0.00 0.00 0.81 73 1005.5
20260504211703 54 297 5.0 15.0 0.00 0.00 0.81 73 1005.5
20260504211603 54 294 5.0 15.0 0.00 0.00 0.81 73 1005.4
20260504211503 54 293 5.0 15.0 0.00 0.00 0.81 73 1005.5
20260504211418 54 294 4.0 15.0 0.00 0.00 0.81 73 1005.5
20260504211403 54 294 4.0 15.0 0.00 0.00 0.81 73 1005.3
20260504211303 53 297 4.0 15.0 0.00 0.00 0.81 74 1005.4
20260504211103 53 309 4.0 15.0 0.00 0.00 0.81 76 1005.0
20260504211003 52 315 3.0 15.0 0.00 0.00 0.81 79 1005.5
20260504210919 52 317 3.0 15.0 0.00 0.00 0.81 81 1005.5
20260504210903 52 320 2.0 15.0 0.00 0.00 0.81 81 1005.4
20260504210803 52 349 2.0 13.0 0.00 0.00 0.81 81 1005.1
20260504210603 52 34 1.0 2.0 0.00 0.00 0.81 80 1005.1
20260504210503 52 45 1.0 2.0 0.00 0.00 0.81 80 1005.3
20260504210417 52 51 1.0 2.0 0.00 0.00 0.81 79 1005.3
20260504210403 52 53 1.0 2.0 0.00 0.00 0.81 79 1005.1
20260504210303 52 62 1.0 2.0 0.00 0.00 0.81 79 1005.0
20260504210004 52 86 1.0 2.0 0.00 0.00 0.81 79 1005.0
20260504205903 52 92 1.0 2.0 0.00 0.00 0.81 79 1005.1
20260504205816 52 95 1.0 2.0 0.00 0.00 0.81 79 1005.1
20260504205803 52 96 1.0 2.0 0.00 0.00 0.81 79 1005.1
20260504205703 52 99 1.0 2.0 0.00 0.00 0.81 78 1005.3
20260504205503 52 102 1.0 2.0 0.00 0.00 0.81 79 1005.0
20260504205418 52 102 1.0 2.0 0.00 0.00 0.81 79 1005.0
20260504205403 52 102 1.0 2.0 0.00 0.00 0.81 79 1005.3
20260504205304 52 101 1.0 2.0 0.00 0.00 0.81 79 1005.3
20260504205103 52 98 1.0 2.0 0.00 0.00 0.81 79 1005.0
20260504205003 53 96 1.0 2.0 0.00 0.00 0.81 78 1005.0
20260504204903 53 92 1.0 2.0 0.00 0.00 0.81 77 1005.3
20260504204803 53 90 1.0 2.0 0.00 0.00 0.81 77 1005.1
20260504204703 53 88 1.0 2.0 0.00 0.00 0.81 77 1005.0
20260504204603 53 86 1.0 2.0 0.00 0.00 0.81 77 1004.9
20260504204503 53 84 1.0 2.0 0.00 0.00 0.81 77 1005.0
20260504204403 53 82 1.0 2.0 0.00 0.00 0.81 77 1005.3
20260504204303 53 78 1.0 2.0 0.00 0.00 0.81 78 1005.1
20260504204203 53 75 1.0 2.0 0.00 0.00 0.81 78 1004.9
20260504204103 53 73 1.0 2.0 0.00 0.00 0.81 77 1005.0
20260504204003 53 71 1.0 2.0 0.00 0.00 0.81 78 1004.9
20260504203903 53 70 1.0 2.0 0.00 0.00 0.81 77 1005.1
20260504203816 53 67 1.0 2.0 0.00 0.00 0.81 77 1005.1
20260504203803 53 66 1.0 2.0 0.00 0.00 0.81 77 1005.1
20260504203703 53 63 1.0 2.0 0.00 0.00 0.81 77 1005.0
20260504203503 53 60 1.0 2.0 0.00 0.00 0.81 77 1005.1
20260504203418 53 61 1.0 2.0 0.00 0.00 0.81 77 1005.1
20260504203403 53 61 1.0 2.0 0.00 0.00 0.81 77 1004.9
20260504203303 53 63 1.0 2.0 0.00 0.00 0.81 76 1005.0
20260504203103 53 69 1.0 2.0 0.00 0.00 0.81 76 1005.1
20260504203003 53 73 1.0 2.0 0.00 0.00 0.81 75 1005.0
20260504202903 53 76 1.0 2.0 0.00 0.00 0.81 74 1005.3
20260504202803 53 82 1.0 2.0 0.00 0.00 0.81 74 1005.1
20260504202703 53 87 1.0 2.0 0.00 0.00 0.81 74 1005.1
20260504202603 53 91 1.0 2.0 0.00 0.00 0.81 74 1005.4
20260504202517 53 94 1.0 2.0 0.00 0.00 0.81 74 1005.4
20260504202503 53 95 1.0 2.0 0.00 0.00 0.81 74 1005.0
20260504202403 54 98 1.0 2.0 0.00 0.00 0.81 74 1004.9
20260504202203 54 104 1.0 2.0 0.00 0.00 0.81 73 1005.3
20260504202103 54 105 1.0 2.0 0.00 0.00 0.81 73 1005.0
20260504202003 54 107 1.0 2.0 0.00 0.00 0.81 73 1005.1
20260504201903 54 108 1.0 2.0 0.00 0.00 0.81 73 1005.1
20260504201803 54 109 1.0 2.0 0.00 0.00 0.81 73 1005.0
20260504201703 54 107 1.0 2.0 0.00 0.00 0.81 73 1005.1
20260504201603 54 105 1.0 2.0 0.00 0.00 0.81 73 1005.0
20260504201503 54 102 1.0 2.0 0.00 0.00 0.81 73 1005.3
20260504201403 54 99 1.0 2.0 0.00 0.00 0.81 73 1005.0
20260504201303 54 94 1.0 2.0 0.00 0.00 0.81 73 1004.8
20260504201203 54 86 1.0 2.0 0.00 0.00 0.81 73 1005.1
20260504201103 54 75 2.0 2.0 0.00 0.00 0.81 73 1005.4
20260504201016 54 67 2.0 2.0 0.00 0.00 0.81 73 1005.4
20260504201003 54 65 2.0 2.0 0.00 0.00 0.81 73 1005.1
20260504200903 54 53 2.0 2.0 0.00 0.00 0.81 73 1005.0
20260504200703 54 31 2.0 2.0 0.00 0.00 0.81 72 1005.1
20260504200603 54 20 2.0 2.0 0.00 0.00 0.81 72 1005.0
20260504200503 54 12 2.0 3.0 0.00 0.00 0.81 72 1005.3
20260504200424 54 6 2.0 3.0 0.00 0.00 0.81 73 1005.3
20260504200403 54 4 2.0 3.0 0.00 0.00 0.81 73 1005.0
20260504200303 54 359 2.0 3.0 0.00 0.00 0.81 73 1005.0
20260504200217 54 358 2.0 3.0 0.00 0.00 0.81 73 1005.0
20260504195903 55 2 2.0 3.0 0.00 0.00 0.81 73 1004.9
20260504195803 55 1 2.0 3.0 0.00 0.00 0.81 73 1004.9
20260504195703 55 356 2.0 3.0 0.00 0.00 0.81 72 1004.9
20260504195603 55 352 2.0 3.0 0.00 0.00 0.81 72 1005.1
20260504195503 55 351 2.0 3.0 0.00 0.00 0.81 72 1005.3
20260504195403 55 351 2.0 3.0 0.00 0.00 0.81 73 1004.9
20260504195304 55 350 2.0 3.0 0.00 0.00 0.81 73 1005.0
20260504195203 55 349 2.0 3.0 0.00 0.00 0.81 73 1004.9
20260504195103 55 348 2.0 3.0 0.00 0.00 0.81 73 1005.0
20260504195003 55 345 2.0 3.0 0.00 0.00 0.81 73 1005.1
20260504194919 55 345 2.0 3.0 0.00 0.00 0.81 74 1005.1
20260504194903 55 345 2.0 3.0 0.00 0.00 0.81 74 1004.9
20260504194803 55 345 2.0 3.0 0.00 0.00 0.81 73 1004.9
20260504194603 55 352 2.0 3.0 0.00 0.00 0.81 74 1005.0
20260504194517 55 353 2.0 3.0 0.00 0.00 0.81 74 1005.0
20260504194503 55 353 2.0 3.0 0.00 0.00 0.81 74 1005.3
20260504194416 55 353 2.0 3.0 0.00 0.00 0.81 73 1005.3
20260504194403 55 353 2.0 3.0 0.00 0.00 0.81 73 1004.9
20260504194103 55 352 2.0 3.0 0.00 0.00 0.81 73 1004.9
20260504194003 55 350 1.0 3.0 0.00 0.00 0.81 73 1005.0
20260504193903 55 353 1.0 3.0 0.00 0.00 0.81 73 1005.0
20260504193803 56 357 1.0 2.0 0.00 0.00 0.81 72 1005.0
20260504193703 56 2 1.0 2.0 0.00 0.00 0.81 72 1005.3
20260504193603 56 7 1.0 2.0 0.00 0.00 0.81 70 1005.3
20260504193503 56 13 1.0 2.0 0.00 0.00 0.81 71 1005.1
20260504193403 56 18 1.0 2.0 0.00 0.00 0.81 70 1005.0
20260504193303 56 22 1.0 2.0 0.00 0.00 0.81 70 1005.1
20260504193203 56 27 1.0 2.0 0.00 0.00 0.81 70 1005.1
20260504193103 56 32 1.0 2.0 0.00 0.00 0.81 69 1005.0
20260504193003 56 40 1.0 2.0 0.00 0.00 0.81 69 1005.3
20260504192903 56 41 1.0 2.0 0.00 0.00 0.81 68 1005.0
20260504192803 56 36 1.0 2.0 0.00 0.00 0.81 70 1005.0
20260504192703 56 33 1.0 2.0 0.00 0.00 0.81 68 1005.0
20260504192619 56 31 1.0 2.0 0.00 0.00 0.81 68 1005.0
20260504192603 57 31 1.0 2.0 0.00 0.00 0.81 68 1005.3
20260504192503 57 26 1.0 2.0 0.00 0.00 0.81 67 1005.1
20260504192304 57 21 1.0 2.0 0.00 0.00 0.81 68 1005.1
20260504192203 57 20 1.0 2.0 0.00 0.00 0.81 68 1005.3
20260504192103 57 20 1.0 2.0 0.00 0.00 0.81 68 1005.3
20260504192018 57 19 1.0 2.0 0.00 0.00 0.81 68 1005.3
20260504192003 57 19 1.0 2.0 0.00 0.00 0.81 68 1005.0
20260504191903 57 19 1.0 2.0 0.00 0.00 0.81 68 1005.0
20260504191820 57 23 2.0 2.0 0.00 0.00 0.81 67 1005.0
20260504191503 57 41 2.0 2.0 0.00 0.00 0.81 67 1005.3
20260504191403 57 47 2.0 2.0 0.00 0.00 0.81 67 1005.0
20260504191303 57 52 2.0 2.0 0.00 0.00 0.81 68 1005.1
20260504191219 57 55 2.0 2.0 0.00 0.00 0.81 68 1005.1
20260504191203 57 57 2.0 2.0 0.00 0.00 0.81 68 1005.1
20260504191103 58 62 2.0 2.0 0.00 0.00 0.81 67 1005.3
20260504190903 58 73 2.0 2.0 0.00 0.00 0.81 65 1005.1
20260504190803 58 76 2.0 2.0 0.00 0.00 0.81 65 1005.3
20260504190703 58 79 2.0 2.0 0.00 0.00 0.81 64 1005.4
20260504190603 58 80 2.0 2.0 0.00 0.00 0.81 64 1005.4
20260504190503 58 82 2.0 2.0 0.00 0.00 0.81 64 1005.1
20260504190403 58 83 2.0 2.0 0.00 0.00 0.81 64 1005.4
20260504190318 58 84 2.0 2.0 0.00 0.00 0.81 63 1005.4
20260504190303 58 84 2.0 2.0 0.00 0.00 0.81 63 1005.3
20260504190203 58 86 2.0 2.0 0.00 0.00 0.81 63 1005.1
20260504190003 58 88 1.0 2.0 0.00 0.00 0.81 63 1005.0
20260504185903 58 88 1.0 2.0 0.00 0.00 0.81 64 1005.0
20260504185803 58 87 1.0 2.0 0.00 0.00 0.81 64 1005.4
20260504185703 58 86 1.0 2.0 0.00 0.00 0.81 64 1005.3
20260504185603 58 81 1.0 2.0 0.00 0.00 0.81 65 1005.1
20260504185503 59 75 1.0 2.0 0.00 0.00 0.81 65 1005.3
20260504185403 59 67 1.0 4.0 0.00 0.00 0.81 65 1005.1
20260504185316 59 46 1.0 4.0 0.00 0.00 0.81 65 1005.1
20260504185304 59 25 1.0 4.0 0.00 0.00 0.81 64 1005.3
20260504185203 59 333 1.0 5.0 0.00 0.00 0.81 64 1005.5
20260504185003 59 303 2.0 5.0 0.00 0.00 0.81 66 1005.5
20260504184903 59 300 2.0 5.0 0.00 0.00 0.81 64 1005.3
20260504184803 59 299 2.0 5.0 0.00 0.00 0.81 65 1005.4
20260504184703 59 298 2.0 5.0 0.00 0.00 0.81 64 1005.3
20260504184603 59 297 2.0 5.0 0.00 0.00 0.81 64 1005.1
20260504184503 59 295 2.0 5.0 0.00 0.00 0.81 64 1005.5
20260504184403 60 300 2.0 5.0 0.00 0.00 0.81 70 1005.3
20260504184303 60 305 2.0 5.0 0.00 0.00 0.81 70 1005.3
20260504184203 60 312 2.0 5.0 0.00 0.00 0.81 70 1005.4
20260504184103 60 327 2.0 5.0 0.00 0.00 0.81 70 1005.5
20260504184003 60 3 1.0 5.0 0.00 0.00 0.81 70 1005.5
20260504183903 60 45 1.0 3.0 0.00 0.00 0.81 65 1005.3
20260504183803 60 62 1.0 2.0 0.00 0.00 0.81 61 1005.4
20260504183703 60 73 1.0 2.0 0.00 0.00 0.81 61 1005.1
20260504183603 60 78 1.0 2.0 0.00 0.00 0.81 61 1005.4
20260504183503 60 80 1.0 2.0 0.00 0.00 0.81 60 1005.3
20260504183403 60 82 1.0 2.0 0.00 0.00 0.81 59 1005.1
20260504183303 60 82 1.0 2.0 0.00 0.00 0.81 59 1005.0
20260504183203 61 79 1.0 2.0 0.00 0.00 0.81 59 1005.1
20260504183103 61 74 1.0 2.0 0.00 0.00 0.81 58 1005.0
20260504183016 61 69 1.0 2.0 0.00 0.00 0.81 58 1005.0
20260504183003 61 68 1.0 2.0 0.00 0.00 0.81 58 1005.4
20260504182919 61 64 1.0 2.0 0.00 0.00 0.81 58 1005.4
20260504182903 61 63 1.0 2.0 0.00 0.00 0.81 58 1005.1
20260504182603 61 55 1.0 2.0 0.00 0.00 0.81 58 1005.1
20260504182517 61 54 1.0 2.0 0.00 0.00 0.81 58 1005.1
20260504182503 61 54 1.0 2.0 0.00 0.00 0.81 58 1005.4
20260504182403 61 54 1.0 2.0 0.00 0.00 0.81 58 1005.3
20260504182203 62 51 1.0 2.0 0.00 0.00 0.81 58 1005.3
20260504182103 62 52 1.0 2.0 0.00 0.00 0.81 58 1005.4
20260504182003 62 50 1.0 2.0 0.00 0.00 0.81 58 1005.3
20260504181903 62 50 0.0 2.0 0.00 0.00 0.81 57 1005.4
20260504181803 62 51 0.0 2.0 0.00 0.00 0.81 57 1005.3
20260504181703 62 55 0.0 1.0 0.00 0.00 0.81 57 1005.4
20260504181603 62 72 0.0 1.0 0.00 0.00 0.81 57 1005.3
20260504181519 63 92 0.0 1.0 0.00 0.00 0.81 57 1005.3
20260504181503 63 95 0.0 1.0 0.00 0.00 0.81 57 1005.4
20260504181403 63 99 0.0 1.0 0.00 0.00 0.81 56 1005.4
20260504181103 63 99 0.0 1.0 0.00 0.00 0.81 55 1005.3
20260504181003 64 99 0.0 1.0 0.00 0.00 0.81 55 1005.4
20260504180918 64 99 0.0 1.0 0.00 0.00 0.81 55 1005.4
20260504180903 64 100 0.0 1.0 0.00 0.00 0.81 55 1005.5
20260504180803 64 101 0.0 1.0 0.00 0.00 0.81 53 1005.3
20260504180618 64 106 0.0 1.0 0.00 0.00 0.81 53 1005.3
20260504180603 64 107 0.0 1.0 0.00 0.00 0.81 54 1005.1
20260504180503 64 114 0.0 2.0 0.00 0.00 0.81 53 1005.1
20260504180303 64 118 0.0 2.0 0.00 0.00 0.81 53 1005.1
20260504180203 65 119 0.0 2.0 0.00 0.00 0.81 53 1005.3
20260504180119 65 119 0.0 2.0 0.00 0.00 0.81 53 1005.3
20260504180103 65 120 0.0 2.0 0.00 0.00 0.81 53 1005.4
20260504180003 65 121 0.0 2.0 0.00 0.00 0.81 53 1005.5
20260504175803 65 125 0.0 2.0 0.00 0.00 0.81 52 1005.4
20260504175703 66 127 0.0 2.0 0.00 0.00 0.81 51 1005.1
20260504175616 66 129 0.0 2.0 0.00 0.00 0.81 49 1005.1
20260504175603 66 130 0.0 2.0 0.00 0.00 0.81 49 1005.5
20260504175503 66 131 0.0 2.0 0.00 0.00 0.81 48 1005.1
20260504175304 67 136 0.0 2.0 0.00 0.00 0.81 47 1005.4
20260504175203 67 139 1.0 2.0 0.00 0.00 0.81 47 1005.3
20260504175103 67 141 1.0 2.0 0.00 0.00 0.81 46 1005.4
20260504175020 67 145 1.0 2.0 0.00 0.00 0.81 46 1005.4
20260504175003 67 145 1.0 2.0 0.00 0.00 0.81 46 1005.1
20260504174903 68 146 1.0 2.0 0.00 0.00 0.81 46 1005.1
20260504174703 68 157 1.0 2.0 0.00 0.00 0.81 45 1005.3
20260504174603 68 164 1.0 3.0 0.00 0.00 0.81 45 1005.4
20260504174503 68 171 1.0 3.0 0.00 0.00 0.81 44 1005.3
20260504174403 68 177 1.0 3.0 0.00 0.00 0.81 44 1005.5
20260504174303 69 186 1.0 3.0 0.00 0.00 0.81 43 1005.3
20260504174216 69 190 1.0 3.0 0.00 0.00 0.81 44 1005.3
20260504174203 69 191 1.0 3.0 0.00 0.00 0.81 44 1005.4
20260504174103 69 198 1.0 3.0 0.00 0.00 0.81 44 1005.4
20260504173903 70 207 1.0 3.0 0.00 0.00 0.81 42 1005.4
20260504173803 70 209 2.0 3.0 0.00 0.00 0.81 42 1005.5
20260504173703 70 210 2.0 3.0 0.00 0.00 0.81 42 1005.5
20260504173603 70 211 2.0 3.0 0.00 0.00 0.81 42 1005.5
20260504173403 71 204 2.0 3.0 0.00 0.00 0.81 40 1005.5
20260504173316 71 200 2.0 3.0 0.00 0.00 0.81 40 1005.5
20260504173303 71 200 2.0 4.0 0.00 0.00 0.81 41 1005.5
20260504173003 72 196 2.0 4.0 0.00 0.00 0.81 40 1005.5
20260504172903 72 196 2.0 4.0 0.00 0.00 0.81 40 1005.6
20260504172803 72 197 2.0 4.0 0.00 0.00 0.81 39 1005.6
20260504172703 72 198 2.0 4.0 0.00 0.00 0.81 39 1005.6
20260504172603 72 199 2.0 4.0 0.00 0.00 0.81 39 1005.5
20260504172503 72 207 2.0 8.0 0.00 0.00 0.81 38 1005.5
20260504172403 73 207 2.0 8.0 0.00 0.00 0.81 39 1005.6
20260504172318 73 210 2.0 8.0 0.00 0.00 0.81 38 1005.6
20260504172304 73 210 3.0 8.0 0.00 0.00 0.81 38 1005.5
20260504172203 73 207 3.0 8.0 0.00 0.00 0.81 38 1005.5
20260504172003 73 208 3.0 8.0 0.00 0.00 0.81 37 1005.5
20260504171903 73 206 3.0 8.0 0.00 0.00 0.81 38 1005.4
20260504171803 74 205 3.0 8.0 0.00 0.00 0.81 37 1005.6
20260504171703 74 206 3.0 8.0 0.00 0.00 0.81 37 1005.5
20260504171603 74 206 3.0 8.0 0.00 0.00 0.81 37 1005.5
20260504171503 74 205 3.0 8.0 0.00 0.00 0.81 35 1005.5
20260504171403 74 206 4.0 8.0 0.00 0.00 0.81 38 1005.5
20260504171304 74 203 3.0 8.0 0.00 0.00 0.81 36 1005.4
20260504171203 74 208 3.0 8.0 0.00 0.00 0.81 37 1005.5
20260504171103 74 210 3.0 8.0 0.00 0.00 0.81 37 1005.5
20260504171003 74 207 3.0 8.0 0.00 0.00 0.81 35 1005.5
20260504170903 75 207 3.0 8.0 0.00 0.00 0.81 35 1005.5
20260504170803 75 209 3.0 8.0 0.00 0.00 0.81 35 1005.5
20260504170703 75 210 3.0 8.0 0.00 0.00 0.81 35 1005.3
20260504170603 75 208 4.0 8.0 0.00 0.00 0.81 33 1005.5
20260504170503 75 205 3.0 8.0 0.00 0.00 0.81 32 1005.4
20260504170403 75 205 4.0 8.0 0.00 0.00 0.81 32 1005.3
20260504170303 75 207 3.0 8.0 0.00 0.00 0.81 32 1005.5
20260504170203 75 205 4.0 8.0 0.00 0.00 0.81 32 1005.5
20260504160403 77 194 5.0 13.0 0.00 0.00 0.81 30 1005.5
20260504160303 77 193 5.0 13.0 0.00 0.00 0.81 30 1005.5
20260504160203 77 193 5.0 13.0 0.00 0.00 0.81 30 1005.5
20260504160103 77 200 6.0 13.0 0.00 0.00 0.81 32 1005.6
20260504150903 77 174 7.0 15.0 0.00 0.00 0.81 30 1005.7